User: anonymous   Login
Location: Unspecified
(0.0000°N, 0.0000°E)
Time: 09:45:56
(UTC+02:00)
Language:

Cosmos 1300 - Orbit

View from above orbital plane
View from above orbital plane
View from above satellite
View from above satellite

Ground track
Ground track

The orbit data is extracted from the following two-line orbital elements,

1 12785U 81082A   14297.78273888  .00008437  00000-0  48964-3 0  8519
2 12785 082.5046 306.4221 0001953 063.7547 355.2246 15.12013302805501
Epoch (UTC): 24 October 2014 18:47:08
Eccentricity: 0.0001953
inclination: 82.5046°
perigee height: 529 km
apogee height: 531 km
right ascension of ascending node: 306.4221°
argument of perigee: 63.7547°
revolutions per day: 15.12013302
mean anomaly at epoch: 355.2246°
orbit number at epoch: 80550

The dashed part of the orbit path shows where the satellite is in the earth's shadow,  

DLR